Location: Pian di Sc�
(43.6333°N, 11.5500°E)
Time: 18:58:42
(UTC+00:00)

Meteor 1-28 Rocket - Pass Details

Date: 07 August 2020
Orbit: 503 x 524 km, 97.3° (Epoch: 20 September)

Event Time Altitude Azimuth Distance (km) Brightness Sun altitude
Exits shadow 02:36:28 27° 212° (SSW) 1,014 4.1 -15.1°
Maximum altitude 02:37:58 41° 262° (W) 770 3.6 -14.9°
Drops below altitude 10° 02:41:36 10° 333° (NNW) 1,769 6.1 -14.4°
Sets 02:43:49 0° 341° (NNW) 2,664 7.1 -14.1°
